User: anonymous   Login
Location: Unspecified
(49.8670°N, 0.0000°E)
Time: 10:48:41
(UTC+00:00)
Language:

Explorer 7 - Orbit

View from above orbital plane
View from above orbital plane
View from above satellite
View from above satellite

Ground track
Ground track

The orbit data is extracted from the following two-line orbital elements,

1    22U 59009A   19169.94437512 -.00000126 +00000-0 +13823-4 0  9999
2    22 050.2859 011.9916 0140138 306.4085 052.4005 14.94875668415841
Epoch (UTC): 18 June 2019 22:39:54
Eccentricity: 0.0140138
inclination: 50.2859°
perigee height: 485 km
apogee height: 680 km
right ascension of ascending node: 11.9916°
argument of perigee: 306.4085°
revolutions per day: 14.94875668
mean anomaly at epoch: 52.4005°
orbit number at epoch: 41584

The dashed part of the orbit path shows where the satellite is in the earth's shadow,  

DLR